START_TIME,STEP,MOV.,M29,t_acc.,H22,t_acc.,H26,t_acc.,H30,t_acc.
1979-03-08 18:00:29.870 ,1,1,0.,24.0,0.,24.0,0.,24.0,0.,24.0
1979-03-08 18:00:53.870 ,0,1,0.,24.0,0.,24.0,0.,24.0,0.,24.0
1979-03-08 18:01:17.870 ,0,1,0.,24.0,0.,24.0,0.,24.0,0.,24.0
1979-03-08 18:01:41.870 ,1,1,0.,24.0,0.,24.0,0.,24.0,0.,24.0
1979-03-08 18:02:05.870 ,2,1,0.,24.0,0.,24.0,0.,24.0,0.,24.0
1979-03-08 18:02:29.880 ,3,1,0.,24.0,0.,24.0,0.,24.0,0.,24.0
1979-03-08 18:02:53.880 ,4,1,0.,24.0,0.,24.0,0.,24.0,0.,24.0
1979-03-08 18:03:17.880 ,5,1,0.,24.0,0.,24.0,0.,24.0,0.,24.0
1979-03-08 18:03:41.880 ,6,1,0.,24.0,0.,24.0,0.,24.0,0.,24.0
1979-03-08 18:04:05.880 ,7,1,0.,24.0,0.,24.0,0.,24.0,0.,24.0
1979-03-08 18:04:29.880 ,0,0,0.,24.0,0.,24.0,0.,24.0,0.,24.0
1979-03-08 18:04:53.880 ,6,1,0.,24.0,0.,24.0,0.,24.0,0.,24.0
1979-03-08 18:05:17.880 ,5,1,0.,24.0,0.,24.0,0.,24.0,0.,24.0
1979-03-08 18:05:41.880 ,4,1,0.,24.0,0.,24.0,0.,24.0,0.,24.0
1979-03-08 18:06:05.880 ,3,1,0.,24.0,0.,24.0,0.,24.0,0.,24.0
1979-03-08 18:06:29.880 ,2,1,0.,24.0,0.,24.0,0.,24.0,0.,24.0
1979-03-08 18:06:53.880 ,1,1,0.,24.0,0.,24.0,0.,24.0,0.,24.0
1979-03-08 18:07:17.880 ,0,1,0.,24.0,0.,24.0,0.,24.0,0.,24.0
1979-03-08 18:07:41.880 ,0,1,0.,24.0,0.,24.0,0.,24.0,0.,24.0
1979-03-08 18:08:05.880 ,1,1,0.,24.0,0.,24.0,0.,24.0,0.,24.0
1979-03-08 18:08:29.880 ,2,1,0.,24.0,0.,24.0,0.,24.0,0.,24.0
1979-03-08 18:08:53.880 ,3,1,0.,24.0,0.,24.0,0.,24.0,0.,24.0
1979-03-08 18:09:17.880 ,4,1,0.,24.0,0.,24.0,0.,24.0,0.,24.0
1979-03-08 18:09:41.880 ,5,1,0.,24.0,0.,24.0,0.,24.0,0.,24.0
1979-03-08 18:10:05.880 ,6,1,0.,24.0,0.,24.0,0.,24.0,0.,24.0
1979-03-08 18:10:29.880 ,7,1,0.,24.0,0.,24.0,0.,24.0,0.,24.0
1979-03-08 18:10:53.880 ,7,1,0.,24.0,0.,24.0,0.,24.0,0.,24.0
1979-03-08 18:11:17.880 ,6,1,0.,24.0,0.,24.0,0.,24.0,0.,24.0
1979-03-08 18:11:41.880 ,5,1,0.,24.0,0.,24.0,0.,24.0,0.,24.0
1979-03-08 18:12:05.880 ,4,1,0.,24.0,0.,24.0,0.,24.0,0.,24.0
1979-03-08 18:12:29.880 ,3,1,0.,24.0,0.,24.0,0.,24.0,0.,24.0
1979-03-08 18:12:53.880 ,2,1,0.,24.0,0.,24.0,0.,24.0,0.,24.0
1979-03-08 18:13:17.880 ,1,1,0.,24.0,0.,24.0,0.,24.0,0.,24.0
1979-03-08 18:13:41.880 ,0,1,0.,24.0,0.,24.0,0.,24.0,0.,24.0
1979-03-08 18:14:05.880 ,0,1,0.,24.0,0.,24.0,0.,24.0,0.,24.0
1979-03-08 18:14:29.880 ,1,1,0.,24.0,0.,24.0,0.,24.0,0.,24.0
1979-03-08 18:14:53.880 ,2,1,0.,24.0,0.,24.0,0.,24.0,0.,24.0
1979-03-08 18:15:17.880 ,3,1,0.,24.0,0.,24.0,0.,24.0,0.,24.0
1979-03-08 18:15:41.880 ,4,1,0.,24.0,0.,24.0,0.,24.0,0.,24.0
1979-03-08 18:16:05.880 ,5,1,0.,24.0,0.,24.0,0.,24.0,0.,24.0
1979-03-08 18:16:29.880 ,6,1,0.,24.0,0.,24.0,0.,24.0,0.,24.0
1979-03-08 18:16:53.880 ,7,1,0.,24.0,0.,24.0,0.,24.0,0.,24.0
1979-03-08 18:17:17.880 ,7,1,0.,24.0,0.,24.0,0.,24.0,0.,24.0
1979-03-08 18:17:41.880 ,6,1,0.,24.0,0.,24.0,0.,24.0,0.,24.0
1979-03-08 18:18:05.880 ,5,1,0.,24.0,0.,24.0,0.,24.0,0.,24.0
1979-03-08 18:18:29.880 ,4,1,0.,24.0,0.,24.0,0.,24.0,0.,24.0
1979-03-08 18:18:53.880 ,3,1,0.,24.0,0.,24.0,0.,24.0,0.,24.0
1979-03-08 18:19:17.880 ,2,1,0.,24.0,0.,24.0,0.,24.0,0.,24.0
1979-03-08 18:19:41.880 ,1,1,0.,24.0,0.,24.0,0.,24.0,0.,24.0
1979-03-08 18:20:05.880 ,0,1,0.,24.0,0.,24.0,0.,24.0,0.,24.0
1979-03-08 18:20:29.880 ,0,1,0.,24.0,0.,24.0,0.,24.0,0.,24.0
1979-03-08 18:20:53.880 ,1,1,0.,24.0,0.,24.0,0.,24.0,0.,24.0
1979-03-08 18:21:17.880 ,2,1,0.,24.0,0.,24.0,0.,24.0,0.,24.0
1979-03-08 18:21:41.880 ,3,1,0.,24.0,0.,24.0,0.,24.0,0.,24.0
1979-03-08 18:22:05.880 ,4,1,0.,24.0,0.,24.0,0.,24.0,0.,24.0
1979-03-08 18:22:29.880 ,5,1,0.,24.0,0.,24.0,0.,24.0,0.,24.0
1979-03-08 18:22:53.880 ,6,1,0.,24.0,0.,24.0,0.,24.0,0.,24.0
1979-03-08 18:23:17.880 ,7,1,0.,24.0,0.,24.0,0.,24.0,0.,24.0
1979-03-08 18:23:41.880 ,7,1,0.,24.0,0.,24.0,0.,24.0,0.,24.0
1979-03-08 18:24:05.880 ,6,1,0.,24.0,0.,24.0,0.,24.0,0.,24.0
1979-03-08 18:24:29.880 ,5,1,0.,24.0,0.,24.0,0.,24.0,0.,24.0
1979-03-08 18:24:53.880 ,4,1,0.,24.0,0.,24.0,0.,24.0,0.,24.0
1979-03-08 18:25:17.880 ,3,1,0.,24.0,0.,24.0,0.,24.0,0.,24.0
1979-03-08 18:25:41.880 ,2,1,0.,24.0,0.,24.0,0.,24.0,0.,24.0
1979-03-08 18:26:05.880 ,1,1,0.,24.0,0.,24.0,0.,24.0,0.,24.0
1979-03-08 18:26:29.880 ,0,1,0.,24.0,0.,24.0,0.,24.0,0.,24.0
1979-03-08 18:26:53.880 ,0,1,0.,24.0,0.,24.0,0.,24.0,0.,24.0
1979-03-08 18:27:17.880 ,1,1,0.,24.0,0.,24.0,0.,24.0,0.,24.0
1979-03-08 18:27:41.880 ,2,1,0.,24.0,0.,24.0,0.,24.0,0.,24.0
1979-03-08 18:28:05.880 ,3,1,0.,24.0,0.,24.0,0.,24.0,0.,24.0
1979-03-08 18:28:29.880 ,4,1,0.,24.0,0.,24.0,0.,24.0,0.,24.0
1979-03-08 18:28:53.880 ,5,1,0.,24.0,0.,24.0,0.,24.0,0.,24.0
1979-03-08 18:29:17.880 ,6,1,0.,24.0,0.,24.0,0.,24.0,0.,24.0
1979-03-08 18:29:41.880 ,7,1,0.,24.0,0.,24.0,0.,24.0,0.,24.0
1979-03-08 18:30:05.880 ,7,1,0.,24.0,0.,24.0,0.,24.0,0.,24.0
1979-03-08 18:30:29.880 ,6,1,0.,24.0,0.,24.0,0.,24.0,0.,24.0
1979-03-08 18:30:53.880 ,5,1,0.,24.0,0.,24.0,0.,24.0,0.,24.0
1979-03-08 18:31:17.880 ,4,1,0.,24.0,0.,24.0,0.,24.0,0.,24.0
1979-03-08 18:31:41.880 ,3,1,0.,24.0,0.,24.0,0.,24.0,0.,24.0
1979-03-08 18:32:05.880 ,2,1,0.,24.0,0.,24.0,0.,24.0,0.,24.0
1979-03-08 18:32:29.880 ,1,1,0.,24.0,0.,24.0,0.,24.0,0.,24.0
1979-03-08 18:32:53.880 ,0,1,0.,24.0,0.,24.0,0.,24.0,0.,24.0
1979-03-08 18:33:17.880 ,0,1,0.,24.0,0.,24.0,0.,24.0,0.,24.0
1979-03-08 18:33:41.880 ,1,1,0.,24.0,0.,24.0,0.,24.0,0.,24.0
1979-03-08 18:34:05.880 ,2,1,0.,24.0,0.,24.0,0.,24.0,0.,24.0
1979-03-08 18:34:29.880 ,3,1,0.,24.0,0.,24.0,0.,24.0,0.,24.0
1979-03-08 18:34:53.880 ,4,1,0.,24.0,0.,24.0,0.,24.0,0.,24.0
1979-03-08 18:35:17.880 ,5,1,0.,24.0,0.,24.0,0.,24.0,0.,24.0
1979-03-08 18:35:41.880 ,6,1,0.,24.0,0.,24.0,0.,24.0,0.,24.0
1979-03-08 18:36:05.880 ,7,1,0.,24.0,0.,24.0,0.,24.0,0.,24.0
1979-03-08 18:36:29.880 ,7,1,0.,24.0,0.,24.0,0.,24.0,0.,24.0
1979-03-08 18:36:53.880 ,6,1,0.,24.0,0.,24.0,0.,24.0,0.,24.0
1979-03-08 18:37:17.880 ,5,1,0.,24.0,0.,24.0,0.,24.0,0.,24.0
1979-03-08 18:37:41.880 ,4,1,0.,24.0,0.,24.0,0.,24.0,0.,24.0
1979-03-08 18:38:05.880 ,3,1,0.,24.0,0.,24.0,0.,24.0,0.,24.0
1979-03-08 18:38:29.880 ,2,1,0.,24.0,0.,24.0,0.,24.0,0.,24.0
1979-03-08 18:38:53.880 ,1,1,0.,24.0,0.,24.0,0.,24.0,0.,24.0
1979-03-08 18:39:17.880 ,0,0,0.,24.0,0.,24.0,0.,24.0,0.,24.0
1979-03-08 18:39:41.880 ,0,1,0.,24.0,0.,24.0,0.,24.0,0.,24.0
1979-03-08 18:40:05.880 ,1,1,0.,24.0,0.,24.0,0.,24.0,0.,24.0
1979-03-08 18:40:29.880 ,2,1,0.,24.0,0.,24.0,0.,24.0,0.,24.0
1979-03-08 18:40:53.880 ,3,1,0.,24.0,0.,24.0,0.,24.0,0.,24.0
1979-03-08 18:41:17.880 ,4,1,0.,24.0,0.,24.0,0.,24.0,0.,24.0
1979-03-08 18:41:41.880 ,5,1,0.,24.0,0.,24.0,0.,24.0,0.,24.0
1979-03-08 18:42:05.880 ,6,1,0.,24.0,0.,24.0,0.,24.0,0.,24.0
1979-03-08 18:42:29.880 ,7,1,0.,24.0,0.,24.0,0.,24.0,0.,24.0
1979-03-08 18:42:53.880 ,7,1,0.,24.0,0.,24.0,0.,24.0,0.,24.0
1979-03-08 18:43:17.880 ,6,1,0.,24.0,0.,24.0,0.,24.0,0.,24.0
1979-03-08 18:43:41.880 ,5,1,0.,24.0,0.,24.0,0.,24.0,0.,24.0
1979-03-08 18:44:05.880 ,4,1,0.,24.0,0.,24.0,0.,24.0,0.,24.0
1979-03-08 18:44:29.880 ,3,1,0.,24.0,0.,24.0,0.,24.0,0.,24.0
1979-03-08 18:44:53.880 ,2,1,0.,24.0,0.,24.0,0.,24.0,0.,24.0
1979-03-08 18:45:17.880 ,1,1,0.,24.0,0.,24.0,0.,24.0,0.,24.0
1979-03-08 18:45:41.880 ,0,1,0.,24.0,0.,24.0,0.,24.0,0.,24.0
1979-03-08 18:46:05.880 ,0,1,0.,24.0,0.,24.0,0.,24.0,0.,24.0
1979-03-08 18:46:29.880 ,1,1,0.,24.0,0.,24.0,0.,24.0,0.,24.0
1979-03-08 18:46:53.880 ,2,1,0.,24.0,0.,24.0,0.,24.0,0.,24.0
1979-03-08 18:47:17.880 ,3,1,0.,24.0,0.,24.0,0.,24.0,0.,24.0
1979-03-08 18:47:41.880 ,4,1,0.,24.0,0.,24.0,0.,24.0,0.,24.0
1979-03-08 18:48:05.880 ,5,1,0.,24.0,0.,24.0,0.,24.0,0.,24.0
1979-03-08 18:48:29.880 ,6,1,0.,24.0,0.,24.0,0.,24.0,0.,24.0
1979-03-08 18:48:53.880 ,7,1,0.,24.0,0.,24.0,0.,24.0,0.,24.0
1979-03-08 18:49:17.880 ,7,1,0.,24.0,0.,24.0,0.,24.0,0.,24.0
1979-03-08 18:49:41.880 ,6,1,0.,24.0,0.,24.0,0.,24.0,0.,24.0
1979-03-08 18:50:05.880 ,5,1,0.,24.0,0.,24.0,0.,24.0,0.,24.0
1979-03-08 18:50:29.880 ,4,1,0.,24.0,0.,24.0,0.,24.0,0.,24.0
1979-03-08 18:50:53.880 ,3,1,0.,24.0,0.,24.0,0.,24.0,0.,24.0
1979-03-08 18:51:17.880 ,2,1,0.,24.0,0.,24.0,0.,24.0,0.,24.0
1979-03-08 18:51:41.880 ,1,1,0.,24.0,0.,24.0,0.,24.0,0.,24.0
1979-03-08 18:52:05.880 ,0,1,0.,24.0,0.,24.0,0.,24.0,0.,24.0
1979-03-08 18:52:29.880 ,0,1,0.,24.0,0.,24.0,0.,24.0,0.,24.0
1979-03-08 18:52:53.880 ,1,1,0.,24.0,0.,24.0,0.,24.0,0.,24.0
1979-03-08 18:53:17.880 ,2,1,0.,24.0,0.,24.0,0.,24.0,0.,24.0
1979-03-08 18:53:41.880 ,3,1,0.,24.0,0.,24.0,0.,24.0,0.,24.0
1979-03-08 18:54:05.880 ,4,1,0.,24.0,0.,24.0,0.,24.0,0.,24.0
1979-03-08 18:54:29.880 ,5,1,0.,24.0,0.,24.0,0.,24.0,0.,24.0
1979-03-08 18:54:53.880 ,0,0,0.,24.0,0.,24.0,0.,24.0,0.,24.0
1979-03-08 18:56:40.680 ,0,0,,0,,0,,0,,0
1979-03-08 18:56:53.880 ,4,1,0.,24.0,0.,24.0,0.,24.0,0.,24.0
1979-03-08 18:57:17.880 ,3,1,0.,24.0,0.,24.0,0.,24.0,0.,24.0
1979-03-08 18:57:41.880 ,2,1,0.,24.0,0.,24.0,0.,24.0,0.,24.0
1979-03-08 18:58:05.880 ,1,1,0.,24.0,0.,24.0,0.,24.0,0.,24.0
1979-03-08 18:58:29.880 ,0,1,0.,24.0,0.,24.0,0.,24.0,0.,24.0
1979-03-08 18:58:53.880 ,0,1,0.,24.0,0.,24.0,0.,24.0,0.,24.0
1979-03-08 18:59:17.880 ,1,1,0.,24.0,0.,24.0,0.,24.0,0.,24.0
1979-03-08 18:59:41.880 ,2,1,0.,24.0,0.,24.0,0.,24.0,0.,24.0
1979-03-08 19:00:05.880 ,3,1,0.,24.0,0.,24.0,0.,24.0,0.,24.0
1979-03-08 19:00:29.880 ,4,1,0.,24.0,0.,24.0,0.,24.0,0.,24.0
1979-03-08 19:00:53.880 ,5,1,0.,24.0,0.,24.0,0.,24.0,0.,24.0
1979-03-08 19:01:17.880 ,6,1,0.,24.0,0.,24.0,0.,24.0,0.,24.0
1979-03-08 19:01:41.880 ,7,1,0.,24.0,0.,24.0,0.,24.0,0.,24.0
1979-03-08 19:02:05.880 ,7,1,0.,24.0,0.,24.0,0.,24.0,0.,24.0
1979-03-08 19:02:29.880 ,6,1,0.,24.0,0.,24.0,0.,24.0,0.,24.0
1979-03-08 19:02:53.880 ,5,1,0.,24.0,0.,24.0,0.,24.0,0.,24.0
1979-03-08 19:03:17.880 ,4,1,0.,24.0,0.,24.0,0.,24.0,0.,24.0
1979-03-08 19:03:41.880 ,3,1,0.,24.0,0.,24.0,0.,24.0,0.,24.0
1979-03-08 19:04:05.880 ,2,1,0.,24.0,0.,24.0,0.,24.0,0.,24.0
1979-03-08 19:04:29.880 ,1,1,0.,24.0,0.,24.0,0.,24.0,0.,24.0
1979-03-08 19:04:53.880 ,0,1,0.,24.0,0.,24.0,0.,24.0,0.,24.0
1979-03-08 19:05:17.880 ,0,1,0.,24.0,0.,24.0,0.,24.0,0.,24.0
1979-03-08 19:05:41.880 ,1,1,0.,24.0,0.,24.0,0.,24.0,0.,24.0
1979-03-08 19:06:05.880 ,2,1,0.,24.0,0.,24.0,0.,24.0,0.,24.0
1979-03-08 19:06:29.880 ,3,1,0.,24.0,0.,24.0,0.,24.0,0.,24.0
1979-03-08 19:06:53.880 ,4,1,0.,24.0,0.,24.0,0.,24.0,0.,24.0
1979-03-08 19:07:17.880 ,5,1,0.,24.0,0.,24.0,0.,24.0,0.,24.0
1979-03-08 19:07:41.880 ,6,1,0.,24.0,0.,24.0,0.,24.0,0.,24.0
1979-03-08 19:08:05.880 ,7,1,0.,24.0,0.,24.0,0.,24.0,0.,24.0
1979-03-08 19:08:29.880 ,7,1,0.,24.0,0.,24.0,0.,24.0,0.,24.0
1979-03-08 19:08:53.880 ,6,1,0.,24.0,0.,24.0,0.,24.0,0.,24.0
1979-03-08 19:09:17.880 ,5,1,0.,24.0,0.,24.0,0.,24.0,0.,24.0
1979-03-08 19:09:41.880 ,4,1,0.,24.0,0.,24.0,0.,24.0,0.,24.0
1979-03-08 19:10:05.880 ,3,1,0.,24.0,0.,24.0,0.,24.0,0.,24.0
1979-03-08 19:10:29.880 ,2,1,0.,24.0,0.,24.0,0.,24.0,0.,24.0
1979-03-08 19:10:53.880 ,1,1,0.,24.0,0.,24.0,0.,24.0,0.,24.0
1979-03-08 19:11:17.880 ,0,1,0.,24.0,0.,24.0,0.,24.0,0.,24.0
1979-03-08 19:11:41.880 ,0,1,0.,24.0,0.,24.0,0.,24.0,0.,24.0
1979-03-08 19:12:05.880 ,1,1,0.,24.0,0.,24.0,0.,24.0,0.,24.0
1979-03-08 19:12:29.880 ,2,1,0.,24.0,0.,24.0,0.,24.0,0.,24.0
1979-03-08 19:12:53.880 ,3,1,0.,24.0,0.,24.0,0.,24.0,0.,24.0
1979-03-08 19:13:17.880 ,4,1,0.,24.0,0.,24.0,0.,24.0,0.,24.0
1979-03-08 19:13:41.880 ,5,1,0.,24.0,0.,24.0,0.,24.0,0.,24.0
1979-03-08 19:14:05.880 ,6,1,0.,24.0,0.,24.0,0.,24.0,0.,24.0
